GW6881 Weather Reports


time (UTC)temp
C
wind
direction
speed
KPH
gust
KPH
rain 1hr
cm
rain 24hr
cm
rain mn
cm
humidity
%
barometer
mb
20260905195037 18 0.0 0.0 0.00 0.23 0.23 61 1020.0
20260905194038 19 0.0 1.6 0.00 0.23 0.23 59 1019.8
20260905193019 18 0.0 0.0 0.00 0.23 0.23 58 1019.7
20260905192517 18 0.0 1.6 0.00 0.23 0.23 59 1019.7
20260905191517 18 0.0 0.0 0.00 0.23 0.23 62 1019.6
20260905190537 18 0.0 0.0 0.00 0.23 0.23 61 1019.6
20260905185518 18 0.0 0.0 0.00 0.23 0.23 59 1019.6
20260905184538 18 0.0 0.0 0.00 0.23 0.23 57 1019.2
20260905183538 18 0.0 0.0 0.00 0.23 0.23 57 1019.2
20260905182517 18 0.0 0.0 0.00 0.23 0.23 56 1019.3
20260905181517 19 0.0 0.0 0.00 0.23 0.23 54 1019.3
20260905180517 20 0.0 0.0 0.00 0.23 0.23 52 1019.2
20260905175517 21 0.0 1.6 0.00 0.23 0.23 51 1019.0
20260905174517 21 0.0 1.6 0.00 0.23 0.23 48 1018.9
20260905173517 22 0.0 1.6 0.00 0.23 0.23 46 1018.8
20260905172517 22 0.0 1.6 0.00 0.23 0.23 46 1018.8
20260905171517 22 338 1.6 6.4 0.00 0.23 0.23 44 1018.8
20260905170517 23 293 1.6 9.7 0.00 0.23 0.23 43 1018.7
20260905165517 23 293 3.2 6.4 0.00 0.23 0.23 41 1018.7
20260905164517 24 315 3.2 9.7 0.00 0.23 0.23 41 1018.6
20260905163517 25 315 4.8 9.7 0.00 0.23 0.23 40 1018.5
20260905162517 25 315 3.2 11.3 0.00 0.23 0.23 41 1018.3
20260905161557 25 315 3.2 9.7 0.00 0.23 0.23 41 1018.4
20260905160537 25 338 3.2 11.3 0.00 0.23 0.23 40 1018.3
20260905155517 26 338 1.6 6.4 0.00 0.23 0.23 42 1018.3
20260905154517 26 315 3.2 11.3 0.00 0.23 0.23 40 1018.0
20260905153517 26 248 3.2 9.7 0.00 0.23 0.23 42 1017.8
20260905152517 26 293 3.2 11.3 0.00 0.23 0.23 41 1017.9
20260905151517 26 315 3.2 11.3 0.00 0.23 0.23 42 1017.9
20260905150517 27 248 1.6 8.0 0.00 0.23 0.23 40 1018.0
20260905145517 26 0 1.6 8.0 0.00 0.23 0.23 39 1018.0
20260905144537 26 0 4.8 12.9 0.00 0.23 0.23 39 1017.9
20260905143517 26 338 3.2 9.7 0.00 0.23 0.23 39 1017.9
20260905142537 26 315 3.2 9.7 0.00 0.23 0.23 39 1018.2
20260905141537 26 315 4.8 9.7 0.00 0.23 0.23 38 1018.2
20260905140618 26 270 3.2 6.4 0.00 0.23 0.23 38 1018.2
20260905135537 26 338 4.8 16.1 0.00 0.23 0.23 38 1018.2
20260905134517 26 315 3.2 11.3 0.00 0.23 0.23 39 1018.5
20260905133517 26 315 4.8 11.3 0.00 0.23 0.23 39 1018.5
20260905132517 26 293 3.2 11.3 0.00 0.23 0.23 40 1018.3
20260905131537 26 293 3.2 12.9 0.00 0.23 0.23 43 1018.3
20260905130517 25 315 3.2 9.7 0.00 0.23 0.23 42 1018.3
20260905125517 25 315 4.8 11.3 0.00 0.23 0.23 45 1018.4
20260905124517 25 248 4.8 14.5 0.00 0.23 0.23 44 1018.3
20260905123517 26 248 3.2 11.3 0.00 0.23 0.23 45 1018.4
20260905122517 25 315 3.2 16.1 0.00 0.23 0.23 47 1018.4
20260905121557 25 338 1.6 6.4 0.00 0.23 0.23 48 1018.4
20260905120537 25 338 3.2 12.9 0.00 0.23 0.23 49 1018.5
20260905115517 25 315 1.6 8.0 0.00 0.23 0.23 49 1018.3
20260905114517 23 293 3.2 9.7 0.00 0.23 0.23 53 1018.4
20260905113517 23 248 3.2 8.0 0.00 0.23 0.23 56 1018.6
20260905112517 23 248 3.2 9.7 0.00 0.23 0.23 57 1018.7
20260905111537 22 0 1.6 9.7 0.00 0.23 0.23 58 1018.8
20260905110517 22 270 1.6 9.7 0.00 0.23 0.23 62 1018.8
20260905105517 22 248 1.6 12.9 0.00 0.23 0.23 65 1018.9
20260905104537 21 293 1.6 6.4 0.00 0.23 0.23 66 1019.0
20260905103517 21 248 3.2 14.5 0.00 0.23 0.23 68 1019.1
20260905102517 21 248 3.2 12.9 0.00 0.23 0.23 69 1019.1
20260905101537 20 248 1.6 8.0 0.00 0.23 0.23 74 1019.1
20260905100517 20 248 3.2 9.7 0.00 0.23 0.23 76 1019.2
20260905095538 19 203 1.6 9.7 0.00 0.23 0.23 76 1019.1
20260905094517 18 248 1.6 6.4 0.00 0.23 0.23 80 1019.1
20260905093517 18 248 1.6 6.4 0.00 0.23 0.23 79 1019.1
20260905092517 18 270 1.6 6.4 0.00 0.23 0.23 79 1019.3
20260905091517 17 0.0 4.8 0.00 0.23 0.23 82 1019.2
20260905090517 17 0.0 1.6 0.03 0.23 0.23 85 1019.3
20260905085517 16 0.0 1.6 0.03 0.23 0.23 85 1019.5
20260905084517 16 0.0 1.6 0.03 0.23 0.23 86 1019.8
20260905083517 16 0.0 1.6 0.03 0.23 0.23 86 1019.9
20260905082538 16 0.0 4.8 0.03 0.23 0.23 87 1019.3
20260905081517 16 0.0 4.8 0.05 0.23 0.23 86 1018.9
20260905080517 16 0.0 6.4 0.05 0.20 0.20 86 1018.8
20260905075517 16 225 1.6 6.4 0.05 0.20 0.20 87 1018.5
20260905074517 16 248 1.6 6.4 0.05 0.20 0.20 86 1018.5
20260905073537 16 0.0 3.2 0.08 0.20 0.20 87 1018.1
20260905072517 16 0.0 0.0 0.08 0.20 0.20 85 1017.8
20260905071517 16 0.0 4.8 0.10 0.18 0.18 82 1018.2
20260905070537 16 0.0 0.0 0.10 0.15 0.15 85 1018.5
20260905065538 16 0.0 3.2 0.15 0.15 0.15 86 1019.0
20260905064517 16 0.0 1.6 0.15 0.15 0.15 86 1018.6
20260905063517 16 0.0 1.6 0.13 0.13 0.13 85 1018.5
20260905062517 16 0.0 3.2 0.13 0.13 0.13 85 1018.4
20260905061538 17 0.0 1.6 0.08 0.08 0.08 83 1018.2
20260905060517 18 293 1.6 6.4 0.05 0.05 0.05 76 1018.4
20260905055517 19 315 1.6 6.4 0.00 0.00 0.00 66 1018.0
20260905054537 19 293 1.6 8.0 0.00 0.00 0.00 64 1017.5
20260905053517 19 0.0 4.8 0.00 0.00 0.00 65 1017.0
20260905052537 20 0 1.6 8.0 0.00 0.00 0.00 64 1017.2
20260905051517 20 293 1.6 9.7 0.00 0.00 0.00 63 1017.4
20260905050518 20 293 1.6 9.7 0.00 0.00 0.00 61 1017.1
20260905045517 20 293 1.6 4.8 0.00 0.00 0.00 58 1016.7
20260905044518 20 293 1.6 4.8 0.00 0.00 0.00 57 1016.6
20260905043517 20 315 4.8 19.3 0.00 0.00 0.00 56 1016.8
20260905042517 20 338 1.6 6.4 0.00 0.00 0.00 60 1016.1
20260905041517 20 315 1.6 4.8 0.00 0.00 0.00 59 1015.9
20260905040517 20 0.0 4.8 0.00 0.00 0.00 59 1015.6
20260905035517 20 0.0 3.2 0.00 0.00 0.00 59 1015.3
20260905034517 20 293 1.6 12.9 0.00 0.00 0.00 58 1015.5
20260905033517 21 315 1.6 4.8 0.00 0.00 0.00 57 1014.8
20260905032517 21 0 1.6 6.4 0.00 0.00 0.00 56 1014.4
20260905031517 21 0 3.2 9.7 0.00 0.00 0.00 56 1014.2
20260905030517 21 0 3.2 8.0 0.00 0.00 0.00 57 1014.0
20260905025517 21 0 1.6 3.2 0.00 0.00 0.00 58 1014.2
20260905024517 22 0 3.2 8.0 0.00 0.00 0.00 58 1014.2
20260905023517 22 0 3.2 8.0 0.00 0.00 0.00 57 1013.6
20260905022517 23 23 4.8 11.3 0.00 0.00 0.00 56 1013.4
20260905021517 25 0 6.4 27.4 0.00 0.00 0.00 53 1013.4
20260905020517 25 293 1.6 8.0 0.00 0.00 0.00 52 1012.6
20260905015517 24 315 1.6 4.8 0.00 0.00 0.00 54 1012.4
20260905014517 22 0.0 1.6 0.00 0.00 0.00 60 1012.4
20260905013517 21 0.0 0.0 0.00 0.00 0.00 62 1012.4
20260905012517 21 0.0 0.0 0.00 0.00 0.00 62 1012.2
20260905011517 21 0.0 0.0 0.00 0.00 0.00 60 1012.1
20260905010517 21 0.0 0.0 0.00 0.00 0.00 60 1012.0
20260905005517 21 0.0 0.0 0.00 0.00 0.00 61 1012.0
20260905004517 22 0.0 0.0 0.00 0.00 0.00 61 1012.1
20260905003517 22 0.0 1.6 0.00 0.00 0.00 60 1011.9
20260905002537 21 0.0 1.6 0.00 0.00 0.00 62 1011.9
20260905001517 21 0.0 0.0 0.00 0.00 0.00 66 1011.8
20260905000518 21 0.0 0.0 0.00 0.00 0.00 65 1011.8
20260904235517 22 0.0 0.0 0.00 0.00 0.00 63 1011.5
20260904234517 22 0.0 0.0 0.00 0.00 0.00 59 1011.4
20260904233517 22 0.0 1.6 0.00 0.00 0.00 61 1011.4
20260904232517 21 0.0 0.0 0.00 0.00 0.00 64 1011.3
20260904231517 21 0.0 0.0 0.00 0.00 0.00 64 1011.3
20260904230518 21 0.0 0.0 0.00 0.00 0.00 65 1011.4
20260904225517 21 0.0 0.0 0.00 0.00 0.00 63 1011.3
20260904224517 21 0.0 1.6 0.00 0.00 0.00 64 1011.3
20260904223517 21 0.0 0.0 0.00 0.00 0.00 66 1011.3
20260904222517 21 0.0 0.0 0.00 0.00 0.00 67 1011.3
20260904221517 21 0.0 0.0 0.00 0.00 0.00 67 1011.4
20260904220518 21 0.0 1.6 0.00 0.00 0.00 66 1011.3
20260904215517 21 0.0 1.6 0.00 0.00 0.00 66 1011.3
20260904214519 21 0.0 1.6 0.00 0.00 0.00 65 1011.3
20260904213517 21 0.0 1.6 0.00 0.00 0.00 63 1011.3
20260904212517 21 0.0 0.0 0.00 0.00 0.00 63 1011.2
20260904211517 21 0.0 0.0 0.00 0.00 0.00 63 1011.2
20260904210517 22 0.0 0.0 0.00 0.00 0.00 63 1011.3
20260904204515 22 0.0 0.0 0.00 0.00 0.00 61 1011.3
20260904203517 22 0.0 0.0 0.00 0.00 0.00 60 1011.3
20260904202517 23 0.0 0.0 0.00 0.00 0.00 58 1011.3
20260904201517 23 0.0 0.0 0.00 0.00 0.00 57 1011.4
20260904200517 23 0.0 0.0 0.00 0.00 0.00 57 1011.4